{"data":{"norad_id":59731,"intl_designator":"2024-090B","name":"STARLINK-31817","alt_names":[],"object_type":"PAYLOAD","status":"ACTIVE","operator":null,"country":"US","launch_date":"2024-05-13","launch_site_code":"AFETR","launch_vehicle":null,"mission":null,"orbit_class":"UNKNOWN","rcs_meters":null,"size_class":null,"mass_kg":null,"dimensions":null,"purposes":["comms"],"wikipedia_slug":null,"has_3d_model":false,"image_url":null,"decayed_at":null,"tle_current":{"epoch":"2026-05-25T04:41:08.900160Z","epoch_age_seconds":62200,"freshness":"FRESH","line1":"1 59731U 24090B   26145.19524190  .00000511  00000+0  28068-4 0  9993","line2":"2 59731  42.9996 111.1787 0000689 273.3761  86.7012 15.27578116115143","mean_motion":15.27578116,"eccentricity":6.89e-5,"inclination_deg":42.9996,"raan_deg":111.1787,"arg_perigee_deg":273.3761,"mean_anomaly_deg":86.7012,"bstar":2.8068e-5,"rev_number":11514,"period_min":94.266864975172,"perigee_km":482.58200130851,"apogee_km":483.52747352993,"semimajor_km":6861.1917374192,"source":"CELESTRAK","updated_at":"2026-05-25T13:38:19.050458Z"}}}